Showing default

ICEYE-X6, 46497

Orbit data source: Space-Track

ICEYE-X6, 46497 is a payload satellite owned by ICEYE (FI) in SSO that was launched on Mon, 28 Sep 2020 UTC via a SOYUZ-2-1B launch vehicle from the Plesetsk Missile And Space Complex (PKMTR). Payload-class satellites include a variety of spacecraft equipped with specific instruments for various scientific and technological missions. These include communications satellites like Starlink; space stations such as the ISS; scientific satellites like the Hubble; Earth observation satellites from companies like Planet Labs, Umbra, and HawkEye 360; GPS; miniature CubeSats for education and research; and military/defense satellites.

Loading next visibility...
Identifier
46497, 2020-068M
Orbit
SSO
Country
Flag of FIFI / FIN
Related business
Manufacturer
ICEYE
Mission
Operational Commercial Radar Imaging
Bus & Motor
ICEYE, Unknown motor
Mass
80 kg wet, 80 kg dry
Launch date (UTC)
2020-09-28 (5 years ago)
Launch vehicle
SOYUZ-2-1B
Launch site
Plesetsk Missile And Space Complex (PKMTR)
Object type
Payload
Rocket body
Debris
Shape & HBR
Box + 1 Pan, 1.6 m
Radar Cross Section
1.837 m², Medium (>0.1 m² and < 1m²)

Expand to show TLE details & history
Last TLE update: 5 hours ago

TLE from 5 hours ago
0 ICEYE-X6
1 46497U 20068M   25310.87322637  .00009847  00000-0  74309-3 0  9999
2 46497  98.0821 289.4420 0009809 107.4137 252.8160 15.02605463279822
Epoch: 2025-11-06T20:57Z
TLE epoch observation values (Epoch: 2025-11-06T20:57:26.758Z)
Latitude
-0.00001°
Longitude
-71.24479°
Altitude
563.929 km
Speed
7.578 km/s
True Right ascension
19h 17m 46s
True Declination
0° 00' 00"
Sunlit
Object was in daylight at epoch
Visualization orbit readout
Latitude
Unknown
Longitude
Unknown
Altitude
Unknown
Speed
Unknown
Apparent Right ascension
Unknown
Apparent Declination
Unknown
Sunlit
N/A
Visualization observer readout
Local Sidereal Time
21:55:37
Azimuth
Unknown
Elevation
Unknown
Doppler factor
Unknown
Orbital elements
Apogee altitude
562.686 km
Perigee altitude
549.083 km
Semi-major axis
6,934.022 km
Eccentricity
0.00098
Inclination
98.0821°
RAAN
289.442°
Arg. of periapsis
107.4137°
True anomaly
252.70865°
Mean anomaly
252.816°
Eccentric anomaly
252.76232°
Mean motion
3.75894 °/min
Orbital period
95.77 mins
BSTAR
0.00074309
Loading maneuver chart data...
Computing Atmospheric mass density...
Loading historical data...
Loading historical data...
Loading historical data...
Loading historical data...
Loading historical data...
Loading historical data...
Loading historical data...

Documentation

Showing up to 5 results
|